Regional Weather Roundup
Issued by NWS

Home | Current Version | Previous Version | Graphics & Text | Print | Product List | Glossary On
Versions: 1 2 3 4 5 6 7 8 9 10 11 12 13 14 15 16 17 18 19 20 21 22 23 24 25 26 27 28 29 30 31 32 33 34 35 36 37 38 39 40 41 42 43 44 45 46 47 48 49 50
000
ASUS43 KDTX 040901
RWRMI
MICHIGAN HOURLY REGIONAL WEATHER ROUNDUP
NATIONAL WEATHER SERVICE DETROIT/PONTIAC MI
400 AM EST WED MAR 04 2015

NOTE: "FAIR" INDICATES FEW OR NO CLOUDS BELOW 12,000 FEET WITH NO
SIGNIFICANT WEATHER AND/OR OBSTRUCTION TO VISIBILITY.

MIZ047>049-052>055-059>063-066>070-074>076-081>083-041000-
SOUTHEAST LOWER MICHIGAN

CITY           SKY/WX    TMP DP  RH WIND       PRES   REMARKS
ADRIAN         CLOUDY    31  24  75 NW6       29.84S WCI  25
ALMA           CLOUDY    29  23  78 W6        29.80S WCI  22
ANN ARBOR      CLOUDY    31  23  72 NW8       29.83R WCI  23
BAD AXE        MOCLDY    26  22  84 W9        29.77S WCI  17
CARO           CLOUDY    28  22  78 SW8       29.79S WCI  19
DETROIT CITY   CLOUDY    33  22  63 NW6       29.82S WCI  28
DETROIT        CLOUDY    32  23  69 W9        29.83S WCI  24
FLINT          CLOUDY    30  21  69 SW7       29.81F WCI  23
GROSSE ILE     CLOUDY    34  25  69 NW8       29.82R WCI  27
HILLSDALE      CLOUDY    30  26  82 NW8       29.82R WCI  23
HOWELL         CLOUDY    28  23  80 W6        29.81S WCI  22

CITY           SKY/WX    TMP DP  RH WIND       PRES   REMARKS
JACKSON        CLOUDY    29  22  75 W6        29.82F WCI  23
LAMBERTVILLE   CLOUDY    34  27  75 CALM      29.85R
LANSING        CLOUDY    29  22  75 SW8       29.82S WCI  21
LAPEER         CLOUDY    28  21  76 W6        29.80S WCI  21
MASON          CLOUDY    29  22  77 W3        29.82F
MONROE         CLOUDY    34  25  69 NW12G17   29.82S WCI  25
MT. CLEMENS    CLOUDY    31  21  67 NW9G20    29.80R WCI  22
PONTIAC        CLOUDY    28  21  75 W12       29.80S WCI  18
PORT HOPE        N/A     28  20  71 W7        29.74F WCI  21
PORT HURON     CLOUDY    30  23  74 W3        29.82R
TRI CITIES     CLOUDY    28  21  75 SW9       29.79S WCI  19
TROY           CLOUDY    32  23  70 NW7       29.84S WCI  26
SAGINAW HB     MOCLDY    28  23  80 SW8       29.79S WCI  20
$$
MIZ043>046-050>051-056>058-064>065-071>073-077>080-041000-
SOUTHWEST LOWER MICHIGAN

CITY           SKY/WX    TMP DP  RH WIND       PRES   REMARKS
BATTLE CREEK   CLOUDY    30  23  75 W7        29.83F WCI  23
BENTON HARBOR  CLOUDY    30  23  75 W6        29.86S WCI  24
BIG RAPIDS     MOCLDY    26  22  84 W5        29.77S WCI  20
COLDWATER      CLOUDY    30  24  76 W3        29.83F
FREMONT        CLOUDY    27  19  73 NW8       29.80S WCI  18
HOLLAND        CLOUDY    31  22  69 W6        29.84S WCI  25
GRAND RAPIDS   CLOUDY    29  22  75 W8        29.81F WCI  21
IONIA          CLOUDY    30  24  78 W8        29.80F WCI  22
KALAMAZOO      CLOUDY    30  23  75 SW5       29.84S WCI  25
LUDINGTON      PTCLDY    28  17  64 NW10G17   29.82S WCI  19
MARSHALL       CLOUDY    28  23  80 SW6       29.82S WCI  22
MOUNT PLEASANT PTCLDY    27  21  79 W6        29.77S WCI  20
MUSKEGON       CLOUDY    30  20  66 W14       29.82F WCI  19
SOUTH HAVEN    CLOUDY    32  25  74 NW6       29.85S WCI  26
$$
MIZ016>042-041000-
NORTHERN LOWER MICHIGAN

CITY           SKY/WX    TMP DP  RH WIND       PRES   REMARKS
ALPENA         CLOUDY    22  16  78 NW9       29.73R WCI  12
BEAVER ISLAND  LGT SNOW  18  15  88 NW7       29.76R WCI   8
BELLAIRE       CLEAR     21  11  67 NW8       29.79R WCI  11
CADILLAC       FLURRIES  24  18  80 W13       29.73R WCI  12
CHARLEVOIX     CLOUDY    18  12  79 W14       29.79R WCI   4
FRANKFORT      PTCLDY    23  15  71 NW10G16   29.80R WCI  12
GAYLORD        FLURRIES  19  15  84 VRB7      29.70R WCI  10
GRAYLING       LGT SNOW  21  17  83 NW12G20   29.73R WCI   9
HARBOR SPRINGS FLURRIES  19  11  72 W5        29.75R WCI  12
HOUGHTON LAKE  FLURRIES  22  18  85 SW7       29.72F WCI  13
MANISTEE       CLOUDY    27  14  59 NW14      29.80S WCI  15
OSCODA         PTCLDY    22  20  91 SW8       29.73S WCI  12
PELLSTON       CLOUDY    17   9  70 NW13      29.74R WCI   4
ROGERS CITY    FLURRIES  19  15  82 W7        29.74R WCI  10
TRAVERSE CITY  CLOUDY    23  14  68 N6        29.77R WCI  16
$$
MIZ007>008-015-041000-
EASTERN UPPER MICHIGAN

CITY           SKY/WX    TMP DP  RH WIND       PRES   REMARKS
KINROSS        MOCLDY    16   9  73 W16G22    29.70R WCI   0
MACKINAC ISLAN CLOUDY    17  10  74 NW12G18   29.72R WCI   4
NEWBERRY       CLOUDY    13   6  74 W13       29.72S WCI  -2
S. S. MARIE    MIX PCPN  16   8  71 NW17G29   29.69R WCI   0
MUNISING         N/A     16   5  62 NW12G22   29.79R WCI   3
$$
MIZ004>006-011>014-085-041000-
CENTRAL UPPER MICHIGAN

CITY           SKY/WX    TMP DP  RH WIND       PRES   REMARKS
MANISTIQUE     CLOUDY    15   8  73 NW9G16    29.76R WCI   3
ESCANABA       CLOUDY    16   7  67 NW10      29.80R WCI   3
MENOMINEE      CLEAR     16   1  53 NW13G18   29.83R WCI   2
SAWYER-GWINN   CLEAR     10   0  63 NW16G22   29.74R WCI  -7
$$
MIZ001>003-009>011-084-041000-
WESTERN UPPER MICHIGAN

CITY           SKY/WX    TMP DP  RH WIND       PRES   REMARKS
IRON MOUNTAIN  CLEAR     10  -2  58 NW16G22   29.78R WCI  -7
HOUGHTON       PTCLDY     5  -2  72 W23G33    29.76R HAZE    WCI -17
COPPER HARBOR    N/A      7  -2  66 N23G32    29.77R WCI -14
IRONWOOD       PTCLDY     1  -4  78 W15G23    29.85R WCI -18
$$

ABBREVIATIONS USED IN REMARKS
   TC - TEMPERATURE IN CELSIUS
  WCI - WIND CHILL INDEX
   HX - HEAT INDEX
  VSB - VISIBILITY




USA.gov is the U.S. government's official web portal to all federal, state and local government web resources and services.